Flag for Argentina Weather past 2 weeks in Ushuaia, Tierra del Fuego, Argentina

Now
28 °F

Snow. Mostly cloudy.


Feels Like: 19 °F
Forecast: N/A
Wind: 10 mph from South

Location: Ushuaia Aerodrome

Current Time: Jul 24, 2014 at 8:48:14 PM

Latest Report: Jul 24, 2014 at 8:00 PM


Visibility: 3 mi

Pressure: 29.89 "Hg

Humidity: 86%

Dew point: 25 °F

Location of UshuaiaLocation

Historic Weather in Ushuaia — Graph

°F

Ushuaia temperature yesterday

Maximum temperature yesterday: 32 °F (at 12:00 AM)
Minimum temperature yesterday: 27 °F (at 10:00 AM)
Average temperature yesterday: 28 °F

Past Weeks' High & Low Weather Summary

 TemperatureHumidityPressure
High50 °F (Jul 19, 12:00 PM)100% (Jul 20, 10:00 PM)29.98 "Hg (Jul 20, 10:00 PM)
Low27 °F (Jul 23, 10:00 AM)35% (Jul 19, 12:00 PM)29.21 "Hg (Jul 22, 9:00 PM)
Average37 °F76%29.67 "Hg
* Reported Jul 9 7:00 PM — Jul 24 7:00 PM, Ushuaia, Weather by CustomWeather, © 2014

Note: Actual official high and low records may vary slightly from our data, if they occured in-between our weather recording intervals... More about our weather records

Advertising

Ushuaia weather history for previous 24 hours

 ConditionsComfort  
Time TempWeatherWind HumidityBarometerVisibility
7:00 PM
Jul 24
28 °FSnow. Partly cloudy.17 mph86%29.83 "Hg3 mi
6:00 PM28 °FSnow. Passing clouds.21 mph86%29.77 "Hg1 mi
5:00 PM28 °FScattered showers. Passing clouds.17 mph86%29.77 "Hg5 mi
4:00 PM28 °FScattered showers. Broken clouds.21 mph86%29.74 "HgN/A
3:00 PM28 °FScattered showers. Scattered clouds.21 mph86%29.71 "HgN/A
2:00 PM28 °FSnow. Broken clouds.21 mph86%29.71 "Hg5 mi
1:00 PM28 °FSnow. Broken clouds.21 mph86%29.74 "Hg4 mi
12:00 PM28 °FHeavy snow. Low clouds.28 mph86%29.71 "Hg1 mi
11:00 AM27 °FHeavy snow. Low clouds.23 mph93%29.71 "Hg1 mi
10:40 AM27 °FHeavy snow. Low clouds.25 mph100%29.71 "Hg1 mi
10:00 AM27 °FSnow. Partly sunny.17 mph100%29.71 "Hg3 mi
9:00 AM28 °FHeavy snow. Low clouds.31 mph93%29.68 "Hg1 mi
8:00 AM28 °FSnow. Low clouds.18 mph93%29.68 "Hg2 mi
7:00 AM28 °FSnow. Low clouds.28 mph86%29.65 "Hg2 mi
5:00 AM30 °FSnow. Low clouds.38 mph93%29.62 "Hg1 mi
4:00 AM30 °FSnow. Low clouds.35 mph93%29.59 "Hg1 mi
3:00 AM28 °FHeavy rain. Low clouds.32 mph100%29.59 "Hg0 mi
2:00 AM28 °FHeavy rain. Low clouds.41 mph100%N/A0 mi
1:00 AM28 °FHeavy snow. Low clouds.44 mph100%29.50 "Hg0 mi
11:00 PM
Jul 23
28 °FChilly.29 mph86%29.53 "HgN/A
10:00 PM28 °FChilly.23 mph100%29.53 "HgN/A
9:00 PM28 °FLight snow. Overcast.29 mph100%29.50 "Hg1 mi
8:00 PM30 °FLight snow. Overcast.32 mph93%29.47 "Hg1 mi
Weather by CustomWeather, © 2014

See weather overviewHow to use our weather pages